Location: Atwood
(33.8656°N, 117.8309°W)
Time: 05:54:50
(UTC+00:00)

Daily predictions for brighter satellites

Satellite Brightness Start Highest point End
(mag) Time Altitude Azimuth Time Altitude Azimuth Time Altitude Azimuth
CBERS-1 4.4 01:08:59 10° S 01:14:04 71° WSW 01:19:11 10° NNW
SL-16 R/B 3.8 01:09:15 10° N 01:15:02 42° WNW 01:20:47 10° SW
Thor Agena Rocket 3.6 01:11:58 10° SSE 01:17:13 86° ENE 01:22:27 10° NNW
Cosmos 1782 2.6 01:15:35 10° S 01:19:07 59° E 01:22:41 10° NNE
COSMO-SKYMED 1 3.9 01:16:45 10° NE 01:19:40 18° E 01:22:33 10° SE
H-2A R/B 2.6 01:20:19 10° SSW 01:21:48 17° SSE 01:24:08 10° ESE
Cosmos 2098 Rocket 2.6 01:22:16 10° S 01:25:33 56° E 01:29:25 10° NNE
Lacrosse 5 rocket 3.6 01:24:02 10° WNW 01:26:14 15° NW 01:28:26 10° N
CZ-2D R/B 2.8 01:23:18 10° SSE 01:26:20 50° ENE 01:29:23 10° N
Lacrosse 4 Rocket 3.9 01:24:56 10° W 01:27:39 17° WNW 01:30:21 10° NNW
Cosmos 1758 Rocket 3.7 01:26:05 10° N 01:30:14 46° E 01:34:19 10° SSE
IRS-P3 4.3 01:25:54 10° SE 01:30:57 47° ENE 01:36:02 10° N
Cosmos 2266 Rocket 4.5 01:27:31 10° NNE 01:33:05 35° ENE 01:38:32 10° SE
NOSS 8 (E) 4.5 01:33:09 10° NNW 01:36:23 87° NE 01:40:34 10° SSE
CENTAUR R/B 4.3 01:32:27 10° W 01:36:37 21° NW 01:41:29 10° N
CZ-2D R/B 4.5 01:33:40 10° SE 01:37:04 24° ENE 01:40:28 10° NNE
CORIOLIS 4.5 01:32:52 10° S 01:38:10 71° WSW 01:43:30 10° NNW
Intercosmos 24 3.6 01:35:01 10° N 01:38:48 90° W 01:42:21 10° S
BREEZE M DEB (TANK) 4.2 01:37:51 10° W 01:39:43 15° NW 01:41:09 10° N
Cosmos 1503 Rocket 4.2 01:36:40 10° S 01:41:46 52° ESE 01:46:51 10° NNE
Cosmos 1743 2.7 01:40:04 10° N 01:43:06 37° E 01:46:08 10° SSE
IRIDIUM 104 4.4 01:38:43 10° N 01:43:51 56° E 01:48:57 10° SSE
Gbstr 26 Del rocket 3.3 01:41:36 10° SSW 01:45:35 42° SE 01:47:37 22° ENE
Meteor 1-20 Rocket 4.4 01:45:11 10° N 01:50:21 43° ENE 01:55:31 10° SSE
Cosmos 1697 Rocket 3.1 01:46:03 10° S 01:51:16 42° ESE 01:55:09 17° NE
IRIDIUM 114 4.2 01:47:46 10° N 01:52:59 71° E 01:58:10 10° S
Cosmos 1626 Rocket 3.9 01:51:37 10° NNW 01:55:54 67° W 02:00:09 10° S
Cosmos 1606 Rocket 3.7 01:52:24 10° SSE 01:56:36 49° E 02:00:24 13° NNE
Okean 1-7 Rocket 3.9 01:55:11 10° N 01:59:19 39° E 02:03:24 10° SSE
SJ-6F 4.4 01:56:45 10° S 02:00:40 80° WSW 02:04:38 10° NNW
Resurs 1-3 4.0 01:57:11 10° SE 02:01:06 36° ENE 02:05:02 10° N
IRIDIUM 103 4.3 01:56:55 10° N 02:02:10 88° E 02:07:22 10° S
ISS -0.4 02:01:29 10° W 02:02:57 12° SW 02:04:25 10° SSW
ATLAS 5 CENTAUR R/B 4.2 01:58:51 10° SSW 02:04:32 67° ESE 02:28:00 10° NE
Cosmos 1733 3.2 02:02:47 10° NNW 02:04:40 35° W 02:06:35 10° SSW
Cosmos 1777 Rocket 4.2 02:02:29 10° SSW 02:07:44 71° WNW 02:12:59 10° NNE
Cosmos 1655 Rocket 4.4 02:04:34 10° NNE 02:10:18 37° ENE 02:15:58 10° SE
Cosmos 1570 Rocket 4.1 02:04:58 10° NNW 02:10:18 83° WSW 02:15:35 10° SSE
Meteor 1-25 Rocket 4.3 02:07:50 10° N 02:13:33 55° E 02:19:10 10° SSE
ARIANE 6 FM1 Upper Stage 3.3 02:09:43 10° NW 02:13:37 53° WSW 02:17:36 10° SSE
SKYMED 2 4.3 02:13:17 10° N 02:17:30 52° WNW 02:21:42 10° SSW
NOSS 3-2 (C) 3.5 02:13:50 10° SW 02:18:32 56° NW 02:22:24 18° NNE
Cosmos 1726 Rocket 3.5 02:20:22 10° S 02:24:58 80° E 02:27:31 27° NNE
SPOT 1/Viking Rocket 3.7 02:21:17 10° S 02:26:27 75° WSW 02:31:40 10° NNW
Cosmos 1461 3.1 02:23:26 10° SW 02:27:12 57° WNW 02:28:17 40° N
Helios 1A Rocket 2.9 02:28:43 44° NNW 02:29:30 58° WNW 02:32:49 10° SSW
Cosmos 2297 Rocket 2.1 02:24:53 10° NNW 02:30:31 64° ENE 02:36:07 10° SSE
NOAA 6 4.0 02:26:00 10° SSE 02:30:59 56° ENE 02:35:59 10° N
Cosmos 1602 Rocket 4.5 02:28:44 10° NNW 02:32:58 49° W 02:37:09 10° SSW
Cosmos 1933 4.4 02:31:53 10° SSW 02:35:31 41° W 02:38:04 18° NNW
NOSS 2-3 (E) 3.3 02:31:58 10° SSW 02:35:21 65° SSW 02:35:21 65° SSW
Cosmos 2151 4.2 02:35:16 10° NNW 02:39:10 41° W 02:43:04 10° SSW
Cosmos 2208 Rocket 4.5 02:35:39 10° NNW 02:40:43 59° WSW 02:45:48 10° S
NOSS 2-3 (D) 3.6 02:36:55 10° SSW 02:40:05 55° SSW 02:40:05 55° SSW
YAOGAN 1 2.7 02:37:10 10° S 02:41:23 68° WSW 02:45:38 10° NNW
Meteor 2-20 4.3 02:36:09 10° S 02:42:18 87° E 02:47:21 16° N
BREEZE M DEB (TANK) 3.6 02:37:35 10° NW 02:42:21 34° N 02:42:21 34° N
CZ-4C R/B 3.4 02:36:49 10° NNW 02:43:53 43° NE 02:44:13 43° ENE
Cosmos 1980 Rocket 2.3 02:45:59 10° S 02:50:51 57° SE 02:50:51 57° SE
PSLV R/B 3.9 02:47:39 10° S 02:55:18 11° NNW 02:55:32 10° NNW
COSMO-SKYMED 1 4.4 02:52:03 13° NNW 02:54:55 27° WNW 02:58:23 10° SW
Intelsat 5-1 Rocket 4.3 02:59:48 10° SW 03:01:05 15° SSW 03:01:05 15° SSW
Meteor 2-20 Rocket 4.4 02:58:56 10° S 03:05:22 87° W 03:06:42 59° N
USA 238 DEB 3.5 03:11:10 10° SW 03:16:40 74° WSW 03:16:40 74° WSW
USA 238 3.5 03:11:16 10° SW 03:16:43 73° WSW 03:16:43 73° WSW
Cosmos 2227 Rocket 4.3 03:15:29 10° NNW 03:16:24 15° NNW 03:16:24 15° NNW
ATLAS 2A CENTAUR R/B 4.0 03:11:39 10° W 03:21:15 32° SSW 03:21:47 31° SSW
CZ-4C R/B 4.4 04:24:56 10° NW 04:29:16 33° WNW 04:29:16 33° WNW
Atlas Centaur 2 4.4 11:09:32 28° SE 11:09:32 28° SE 11:13:21 10° ESE
CZ-3 R/B 3.8 11:08:45 67° SW 11:11:24 72° S 11:21:47 10° ESE
ATLAS CENTAUR Rocket 3.8 11:53:26 25° SSE 11:53:26 25° SSE 11:58:04 10° E
